TimeHST,TemperatureF,Dew PointF,Humidity,Sea Level PressureIn,VisibilityMPH,Wind Direction,Wind SpeedMPH,Gust SpeedMPH,PrecipitationIn,Events,Conditions,WindDirDegrees,DateUTC
12:02 AM,75.2,62.6,65,30.04,10.0,East,4.6,-,N/A,,Overcast,80,2014-04-16 10:02:00
12:53 AM,73.9,63.0,68,30.03,10.0,East,4.6,-,N/A,,Scattered Clouds,100,2014-04-16 10:53:00
1:53 AM,73.0,63.0,71,30.02,10.0,East,4.6,-,N/A,,Clear,80,2014-04-16 11:53:00
2:53 AM,72.0,63.0,73,29.99,10.0,ESE,8.1,-,N/A,,Clear,110,2014-04-16 12:53:00
3:53 AM,73.0,61.0,66,29.99,10.0,East,6.9,-,N/A,,Clear,100,2014-04-16 13:53:00
4:53 AM,73.0,63.0,71,30.00,10.0,SE,8.1,-,N/A,,Partly Cloudy,130,2014-04-16 14:53:00
5:53 AM,72.0,60.1,66,30.02,10.0,ESE,6.9,-,N/A,,Clear,110,2014-04-16 15:53:00
6:53 AM,73.9,59.0,59,30.04,10.0,ESE,4.6,-,N/A,,Clear,110,2014-04-16 16:53:00
7:53 AM,78.1,64.0,62,30.05,10.0,South,5.8,-,N/A,,Mostly Cloudy,170,2014-04-16 17:53:00
8:53 AM,78.1,64.9,64,30.06,10.0,WSW,4.6,-,N/A,,Overcast,240,2014-04-16 18:53:00
9:53 AM,77.0,64.9,66,30.06,10.0,West,5.8,-,N/A,,Overcast,260,2014-04-16 19:53:00
10:53 AM,79.0,66.0,64,30.06,10.0,West,4.6,-,N/A,,Mostly Cloudy,260,2014-04-16 20:53:00
11:53 AM,79.0,64.0,60,30.05,10.0,South,5.8,16.1,N/A,,Mostly Cloudy,170,2014-04-16 21:53:00
12:53 PM,82.9,66.0,56,30.03,10.0,South,12.7,-,N/A,,Clear,180,2014-04-16 22:53:00
1:53 PM,82.0,66.0,58,30.01,10.0,South,11.5,-,N/A,,Overcast,180,2014-04-16 23:53:00
2:53 PM,82.0,66.0,58,29.99,10.0,South,12.7,-,N/A,,Mostly Cloudy,190,2014-04-17 00:53:00
3:53 PM,81.0,66.0,60,29.97,10.0,South,10.4,-,N/A,,Overcast,180,2014-04-17 01:53:00
4:53 PM,80.1,66.9,64,29.99,10.0,SSW,9.2,-,N/A,,Overcast,210,2014-04-17 02:53:00
5:53 PM,78.1,66.0,66,30.00,10.0,WSW,3.5,-,N/A,,Overcast,240,2014-04-17 03:53:00
6:53 PM,78.1,64.9,64,30.02,10.0,ESE,4.6,-,N/A,,Mostly Cloudy,120,2014-04-17 04:53:00
7:53 PM,79.0,63.0,58,30.03,10.0,Calm,Calm,-,N/A,,Mostly Cloudy,0,2014-04-17 05:53:00
8:53 PM,78.1,66.0,66,30.06,10.0,Calm,Calm,-,N/A,,Clear,0,2014-04-17 06:53:00
9:53 PM,77.0,61.0,58,30.07,10.0,ENE,6.9,-,N/A,,Clear,70,2014-04-17 07:53:00
10:53 PM,77.0,62.1,60,30.07,10.0,Calm,Calm,-,N/A,,Clear,0,2014-04-17 08:53:00
11:53 PM,75.0,63.0,66,30.07,10.0,South,4.6,-,N/A,,Clear,170,2014-04-17 09:53:00